Wind_Speed
9 7 6 3 4 8 8 4 2 5 8 10 9 6 3 4 5 8 10 13 13 10 9 10 11 13 14 16 17 18 17 18 19 21 22 24 27 28 23 21 23 26 24 21 20 16 12 10 8 7 7 7 7 7 9 12 14 15 17 18 18 16 15 15 16 16 15 14 13 12 11 11 12 12 12 12 11 11 10 11 12 12 12 13 13
6 8 8 4 2 5 7 4 3 6 9 10 10 7 5 4 6 9 11 15 17 15 12 12 13 15 17 19 20 19 20 21 23 24 24 25 26 29 28 22 21 24 26 24 22 18 13 11 10 7 7 7 7 7 8 10 13 15 17 18 18 18 16 15 16 16 16 15 13 12 11 11 11 11 12 11 11 10 9 10 11 11 11 10 10
6 9 10 8 6 6 6 6 7 9 10 11 10 9 8 6 7 10 11 14 17 18 17 15 15 18 19 20 21 21 22 23 25 26 26 25 24 27 29 26 23 24 26 26 24 20 15 12 11 8 7 8 8 7 7 9 11 14 16 18 19 19 18 16 16 16 16 15 14 13 12 11 11 11 11 11 11 10 9 9 9 9 8 7 6
10 13 13 12 12 12 11 10 11 12 13 12 10 9 9 8 8 10 11 12 15 18 20 19 18 19 20 21 22 22 22 23 24 26 25 23 21 22 24 25 25 25 26 27 26 22 17 13 12 10 8 8 8 8 8 8 10 12 15 17 18 19 19 18 17 17 17 16 15 14 13 12 11 10 11 11 11 10 9 9 8 7 6 5 4
12 15 17 16 17 18 18 17 17 18 17 16 14 11 12 10 9 10 11 12 13 17 20 21 22 22 20 21 21 22 23 23 23 22 21 21 19 18 21 24 25 24 25 27 27 24 19 15 13 12 9 8 9 9 9 9 9 11 13 16 18 19 19 19 18 17 18 17 16 15 14 12 11 11 10 11 10 10 9 9 8 6 4 3 3
16 19 19 18 18 20 21 22 22 22 21 19 18 16 15 11 10 11 13 14 15 16 19 20 23 24 22 22 23 23 23 22 22 21 19 19 19 18 20 24 25 23 24 26 27 26 22 17 15 13 12 10 9 10 10 10 9 10 12 14 17 18 19 20 20 18 18 18 18 16 15 13 12 11 11 11 11 10 10 9 8 6 3 2 2
19 22 21 20 20 21 23 25 25 24 23 21 21 21 19 15 14 14 14 16 18 18 20 21 23 25 24 24 24 24 23 22 22 22 20 20 20 19 19 22 25 23 23 25 26 27 24 20 17 15 14 12 10 11 11 11 11 10 11 12 15 17 19 20 20 20 19 19 19 18 16 15 13 12 11 11 11 11 10 9 8 6 4 2 1
23 24 24 23 23 24 25 27 27 26 25 25 25 26 25 22 18 18 17 17 18 18 20 22 23 25 25 25 24 23 22 22 21 21 21 20 20 20 19 20 24 25 25 25 26 27 27 24 20 18 16 15 12 11 11 12 12 12 12 12 13 15 18 19 20 21 21 20 20 19 18 16 14 13 12 11 12 12 11 10 8 7 5 3 1
23 25 25 24 23 24 25 27 28 29 28 29 30 29 28 25 21 20 20 18 17 18 20 22 22 24 25 25 25 23 22 22 20 19 19 20 20 20 21 21 23 27 28 28 27 27 28 27 23 20 19 18 16 13 12 11 12 13 13 13 13 14 16 18 20 21 22 22 21 20 19 18 16 14 13 12 12 12 12 12 10 8 6 4 2
21 22 24 24 22 22 24 25 26 27 28 30 31 32 31 28 24 22 23 21 19 18 19 21 23 24 25 25 25 24 24 22 20 18 18 19 20 20 22 22 23 27 30 31 29 27 27 27 25 23 22 21 19 16 14 13 12 13 14 14 14 14 14 16 18 20 22 23 23 22 21 20 18 16 15 14 13 13 13 13 12 10 7 6 3
21 22 24 25 24 23 24 26 26 26 26 27 28 30 31 31 28 26 26 26 23 21 20 21 22 24 25 25 25 25 25 25 21 19 17 18 18 19 20 20 21 24 28 30 29 27 28 28 27 26 26 24 22 20 18 16 14 13 13 13 14 15 15 15 17 19 21 23 24 24 23 22 20 18 17 16 15 14 15 15 14 11 9 7 4
25 25 26 27 26 25 25 26 27 27 26 26 26 27 29 31 31 31 31 31 30 27 24 23 23 23 23 23 24 25 26 26 23 20 18 17 18 19 20 19 18 18 23 26 27 28 29 30 30 30 30 28 26 24 21 19 17 15 14 13 13 14 15 16 16 17 19 21 23 24 25 24 22 21 19 18 17 16 16 16 15 13 11 9 5
30 30 30 30 28 27 28 28 29 28 28 27 27 27 28 29 31 33 34 36 36 33 30 28 26 26 26 24 24 25 26 26 24 23 20 18 19 19 19 18 15 14 17 21 24 27 30 33 33 32 33 32 29 27 24 22 20 19 17 15 14 13 14 16 16 16 17 19 21 23 24 25 24 23 21 20 19 18 18 17 17 15 13 11 7
33 33 33 31 30 30 30 31 30 30 29 29 28 28 28 29 31 33 35 37 38 37 36 33 31 29 29 29 28 27 27 27 27 24 22 20 20 20 19 17 14 12 14 17 18 21 27 33 35 33 33 34 32 29 26 25 23 22 21 18 16 15 14 15 16 17 16 17 19 21 23 24 24 24 23 22 20 20 19 19 18 17 15 12 9
32 32 32 31 31 32 32 32 31 31 31 30 29 29 29 30 30 32 33 36 38 39 39 39 37 34 33 34 33 31 30 29 28 26 24 22 21 22 20 17 16 14 12 13 14 17 22 29 33 33 32 32 32 30 27 26 25 24 23 21 19 17 15 14 14 16 17 17 17 19 21 23 24 24 23 23 22 21 20 20 20 19 17 14 11
30 30 31 31 32 32 33 32 31 32 32 32 31 31 31 31 31 31 31 33 36 38 40 41 42 41 39 38 37 35 34 31 30 30 28 25 23 23 22 20 19 17 13 15 16 18 24 27 29 32 33 32 31 30 29 28 28 26 24 23 21 20 17 15 13 14 15 16 17 18 20 22 24 24 24 23 23 23 22 21 21 20 20 17 14
30 31 31 32 32 32 33 32 31 32 33 33 33 32 32 32 32 31 31 33 34 35 37 40 43 45 44 43 42 41 39 35 33 34 32 29 27 26 25 24 24 20 17 19 19 20 23 27 29 30 32 33 31 31 31 31 30 27 25 25 24 22 20 17 15 14 14 15 16 18 19 20 23 24 25 25 25 24 23 23 23 23 22 20 17
32 32 32 32 32 33 33 33 32 32 33 34 34 34 33 33 33 33 32 32 33 34 35 37 40 44 45 46 46 45 44 40 38 37 35 34 31 29 28 27 27 26 23 21 20 20 23 28 32 31 32 33 33 33 33 31 29 28 28 28 26 25 23 21 19 17 16 16 16 18 19 20 22 24 25 26 26 26 25 25 25 25 24 23 20
34 33 33 33 33 33 33 34 34 33 34 34 35 35 35 35 35 34 32 32 33 34 35 35 37 41 43 46 48 49 48 46 42 40 39 38 34 31 30 28 29 31 28 24 23 26 28 32 35 34 33 33 33 33 33 31 29 28 28 28 28 27 27 25 23 22 20 19 18 18 20 21 22 24 25 27 28 28 27 26 26 26 26 25 23
36 36 35 35 35 34 34 34 35 35 35 35 36 36 37 37 37 36 34 35 35 34 34 34 36 39 41 43 46 49 52 52 49 45 43 41 38 35 32 30 31 32 31 29 28 29 30 32 34 35 35 34 33 33 33 32 30 29 29 29 29 29 30 29 28 26 24 22 21 20 20 21 23 24 26 27 29 30 30 29 28 27 28 28 26
39 38 38 37 36 36 36 35 35 36 36 36 36 37 37 37 38 38 38 37 36 35 35 35 35 37 39 40 43 47 52 55 55 51 47 46 43 40 36 34 34 34 32 31 31 30 31 32 34 35 35 35 34 33 32 33 33 33 32 31 30 31 31 31 31 30 28 26 25 23 22 22 23 24 26 28 29 31 31 31 30 29 29 30 29
40 40 40 39 38 37 37 36 36 37 37 37 36 36 37 37 37 37 38 38 36 35 36 36 37 37 38 39 40 44 49 54 57 57 53 50 49 46 42 38 37 37 36 35 34 33 33 34 35 36 36 35 35 35 34 34 35 34 33 31 31 31 31 32 32 32 31 29 28 27 25 25 24 25 26 28 29 31 33 33 32 31 30 31 31
42 42 41 41 40 39 38 37 37 38 38 38 38 37 37 36 36 36 36 36 36 36 35 37 38 38 38 39 40 43 47 51 57 60 58 56 54 52 49 44 42 41 40 38 37 36 36 36 36 37 38 38 39 38 38 37 36 35 34 32 31 30 30 31 32 33 33 32 31 30 28 27 27 27 27 28 29 31 32 34 35 34 33 32 33
45 44 43 43 42 41 40 39 38 38 39 39 39 38 37 36 35 35 35 35 35 36 36 37 38 39 40 40 40 42 46 50 55 59 62 62 59 58 56 52 48 47 45 42 41 41 40 39 39 41 41 41 42 42 42 40 37 36 35 34 32 30 30 30 31 32 33 33 33 32 31 29 29 28 29 30 31 31 32 34 36 36 35 34 34
48 46 45 44 44 43 41 40 39 39 39 39 38 38 37 36 35 35 35 36 36 37 38 39 40 40 41 42 42 44 46 49 53 57 61 65 65 64 63 59 56 54 52 48 46 45 45 44 44 45 43 43 43 43 44 42 39 37 37 35 33 31 30 30 30 31 32 32 33 33 33 31 31 30 30 31 32 33 33 34 36 37 37 37 36
49 48 47 46 45 43 42 41 40 40 39 38 38 37 36 35 35 35 36 36 37 38 40 40 41 41 41 43 44 46 48 49 53 56 59 63 66 68 69 67 64 62 59 56 52 50 49 50 49 48 46 45 44 44 43 41 40 39 38 36 34 31 31 31 31 32 32 33 34 35 35 34 32 31 31 32 33 35 35 35 36 37 39 39 38
52 50 49 48 46 44 42 41 41 40 39 38 37 37 36 35 35 36 37 38 38 39 40 41 42 43 43 44 45 47 49 50 52 55 59 62 65 68 71 73 71 68 65 62 59 56 55 54 52 50 49 48 47 45 42 40 41 41 38 37 36 34 34 35 34 33 33 35 36 37 37 36 35 34 33 34 34 36 37 37 37 37 39 40 40
54 53 51 50 48 45 43 42 41 40 39 38 37 37 37 36 37 38 39 40 40 39 39 41 43 45 46 47 48 49 51 52 53 54 57 61 64 66 68 72 74 74 70 67 65 63 61 59 55 52 51 50 49 48 45 42 42 41 38 39 39 37 38 40 39 37 36 37 39 38 38 37 37 36 35 36 36 37 38 40 39 38 39 40 41
56 55 54 52 50 48 46 44 42 41 39 38 38 38 38 39 39 41 42 42 43 41 39 42 45 46 49 50 51 52 53 54 54 55 57 59 63 65 66 69 72 75 74 71 69 69 67 64 60 56 54 52 50 50 47 44 43 41 40 41 39 38 41 42 40 39 38 38 40 40 39 38 37 36 36 36 37 38 39 41 41 40 39 39 40
58 57 55 53 51 50 48 47 45 43 41 40 40 40 40 41 42 44 45 46 46 43 41 44 47 48 50 52 53 54 55 55 56 57 58 58 61 64 65 67 69 73 76 74 72 72 72 68 64 61 57 54 52 51 48 46 45 43 42 42 40 40 42 41 39 39 40 39 40 41 39 38 37 36 36 36 36 36 38 40 42 42 41 39 39
59 58 56 54 52 51 50 49 47 45 44 42 42 43 42 44 45 46 49 50 49 46 45 47 50 51 51 52 53 55 56 56 57 58 59 59 60 62 64 66 68 70 75 76 74 73 75 72 67 65 61 55 53 52 50 48 49 47 44 42 41 42 43 43 41 40 41 40 39 39 39 37 37 36 36 36 36 36 37 38 41 43 43 40 39
61 59 57 55 53 52 51 50 48 47 45 44 45 45 45 46 47 49 52 54 52 50 48 49 52 53 53 52 52 53 55 57 57 58 59 59 60 61 63 65 67 68 72 77 77 77 77 75 71 67 64 59 54 54 53 51 50 49 47 44 43 43 44 45 44 43 45 43 41 40 39 37 36 36 36 37 36 36 36 37 39 42 44 42 40
63 61 58 56 55 53 52 51 49 48 46 46 47 47 47 48 49 50 54 56 55 53 52 53 55 55 54 53 52 52 54 56 57 57 58 60 60 61 63 64 66 69 70 74 80 83 81 78 74 70 67 63 57 56 57 54 51 49 47 45 43 43 46 47 46 46 48 47 44 43 41 38 37 36 36 36 37 36 36 36 38 41 44 44 42
65 63 59 57 56 54 53 52 50 49 48 48 48 48 49 50 51 52 55 57 58 57 56 58 58 57 56 53 51 52 54 55 56 56 57 59 59 61 63 63 65 69 71 73 79 86 86 81 77 75 70 66 62 60 59 57 54 50 48 46 45 45 47 49 47 48 48 47 46 44 43 41 38 36 36 36 37 36 36 36 36 38 42 44 43
67 65 62 59 57 55 54 53 52 51 51 50 49 49 50 51 52 54 55 58 60 59 58 59 59 59 57 55 52 52 54 55 54 54 55 57 58 59 61 63 65 68 72 74 76 84 88 83 79 77 72 68 67 65 62 60 57 52 49 48 47 47 47 48 48 48 47 47 46 45 44 42 39 37 37 37 37 37 36 36 36 37 40 43 44
68 66 64 61 59 57 56 55 54 53 52 52 52 51 51 52 53 54 56 59 61 59 59 60 60 59 58 58 56 54 55 55 54 53 53 54 56 58 60 62 64 66 71 74 76 80 87 85 80 79 76 71 70 68 65 62 58 54 51 50 50 49 47 47 46 44 44 45 46 46 45 43 40 38 37 37 37 36 36 36 36 36 39 41 43
70 66 64 62 60 59 57 56 55 53 53 53 54 54 54 54 55 55 56 59 62 61 61 62 61 60 60 60 59 57 55 55 54 53 51 52 54 57 59 61 63 66 69 74 76 79 85 86 82 81 79 74 72 71 69 65 61 57 55 53 52 51 48 46 43 42 42 43 45 47 46 43 40 38 36 36 36 36 36 36 35 35 37 39 40
72 68 65 63 61 59 59 57 56 54 53 52 53 55 56 56 57 59 59 61 64 65 64 64 63 62 61 61 60 58 56 55 54 52 52 52 53 55 58 60 63 66 69 74 77 78 84 87 84 82 81 78 75 74 72 69 65 61 58 56 56 54 49 46 45 43 44 46 47 47 47 43 39 37 35 35 35 35 35 35 34 34 35 37 38
73 69 67 64 61 59 58 57 56 54 53 52 53 55 56 56 58 61 62 62 65 67 67 67 66 63 61 60 58 56 54 53 52 52 52 52 52 55 57 60 63 66 69 74 77 79 84 87 87 84 83 80 78 77 76 72 67 63 61 60 59 55 51 49 48 47 47 49 47 45 46 43 39 36 35 35 35 35 35 34 34 33 34 35 36
75 72 69 65 62 58 55 55 54 53 54 54 53 55 56 56 58 61 64 64 65 67 69 68 66 63 60 58 56 54 52 51 50 51 52 52 52 54 57 59 63 67 70 73 77 81 84 87 89 87 84 83 81 80 78 74 68 65 65 64 61 57 55 53 51 49 50 50 46 43 43 42 39 36 35 35 36 36 35 34 33 32 32 34 35
77 74 71 66 62 57 55 54 53 54 56 57 55 54 56 58 60 63 66 67 67 68 69 67 65 61 58 56 53 51 49 48 48 49 51 51 51 54 57 60 63 67 70 72 77 82 84 87 89 88 86 85 84 83 81 75 70 69 70 68 64 59 58 57 52 51 51 50 46 43 43 42 41 37 35 35 37 36 35 34 33 32 33 33 34
80 76 72 67 62 58 56 56 55 56 58 58 56 56 57 59 62 65 69 70 71 71 70 69 66 62 58 54 52 49 46 45 46 47 48 49 50 54 57 60 62 66 69 72 76 81 85 87 89 89 88 88 88 87 84 78 74 73 71 70 67 62 60 58 56 54 53 51 48 45 43 42 42 39 35 36 38 37 34 33 33 33 33 34 34
81 77 72 68 63 58 56 57 58 59 59 58 57 58 59 61 65 68 71 73 74 74 73 71 68 64 59 54 52 49 46 44 43 45 46 47 49 53 56 59 61 65 68 70 74 79 84 87 90 90 90 91 91 90 86 80 77 75 72 71 71 67 62 59 60 58 55 53 51 48 45 42 41 39 36 36 38 38 35 33 33 33 33 34 35
81 76 73 70 64 58 57 59 59 59 58 59 59 60 62 64 67 70 73 75 76 75 73 70 68 64 58 54 51 48 46 44 42 42 44 44 47 51 54 57 59 63 67 68 71 77 82 87 90 91 91 92 93 92 89 83 79 79 77 74 73 72 67 62 62 62 59 56 52 50 48 44 42 40 37 36 37 38 37 35 34 33 32 32 34
80 77 73 69 64 61 61 62 59 57 58 60 62 64 66 68 69 71 74 77 78 75 72 69 65 62 56 52 49 45 44 44 42 40 41 42 44 48 51 53 56 60 64 66 68 74 80 85 89 90 91 92 94 94 92 87 82 81 80 77 73 73 71 67 64 65 65 60 55 53 52 48 45 42 38 37 39 40 39 37 35 33 32 31 32
80 77 72 67 65 65 64 62 59 57 60 62 63 66 70 72 74 75 75 77 78 76 71 65 61 58 53 49 47 43 41 42 40 38 38 39 41 45 47 49 53 57 61 63 65 71 78 83 88 90 91 92 93 94 93 89 84 83 82 79 74 73 74 72 68 68 68 63 59 59 57 53 51 47 41 40 41 42 41 38 36 35 34 32 33
80 77 72 67 65 63 61 60 60 61 63 64 65 69 72 74 75 76 76 76 76 73 68 61 56 53 50 46 43 39 37 38 37 36 36 37 38 41 44 46 49 53 57 60 63 69 75 81 86 89 91 92 92 92 92 89 86 85 83 79 75 75 75 72 69 69 68 66 63 63 60 56 53 49 46 43 41 42 42 39 37 36 36 35 35
79 75 71 67 63 62 61 61 63 65 66 67 69 72 74 75 76 77 76 74 72 68 63 57 51 49 47 44 41 37 34 34 34 34 34 34 35 37 40 43 46 49 54 58 62 67 73 78 84 88 90 91 91 91 91 90 88 87 84 79 76 76 74 70 67 69 70 69 66 64 62 58 52 49 49 47 42 42 42 40 37 37 37 37 37
78 74 71 68 65 65 64 64 65 68 69 70 72 75 76 78 78 77 75 71 68 64 59 53 47 44 42 41 39 37 34 32 32 33 32 31 32 35 38 41 43 46 51 55 60 66 72 76 82 87 89 90 91 91 90 90 90 89 85 80 79 78 74 70 68 69 71 71 68 66 63 59 54 52 51 50 46 44 43 39 37 37 38 38 39
76 73 71 70 69 69 69 68 69 71 72 74 76 78 79 79 76 74 73 70 65 60 54 48 42 40 38 37 36 35 33 31 30 30 27 26 28 32 36 39 41 44 49 54 59 66 72 76 82 87 89 89 91 92 90 89 91 91 87 83 82 80 77 73 70 68 69 67 65 65 63 59 56 53 52 52 49 45 43 40 39 38 37 38 39
76 74 73 73 73 74 74 73 73 75 77 78 79 81 81 78 74 74 74 70 63 56 50 44 38 35 34 33 33 33 31 29 27 26 23 22 25 29 33 36 39 42 47 52 59 66 73 78 82 86 88 88 88 90 90 88 88 90 90 87 85 82 79 76 72 68 66 65 63 63 62 60 57 53 52 52 49 45 42 41 41 40 38 38 39
Wind_Direction
36 6 352 26 76 61 45 44 54 17 17 22 18 17 352 289 263 257 241 230 235 240 247 245 228 219 224 236 238 230 235 242 246 251 252 256 245 233 241 255 251 246 247 245 240 241 246 250 264 278 261 232 211 202 199 200 200 197 193 188 184 181 179 180 182 182 180 177 173 167 156 145 137 132 128 127 127 124 118 112 108 106 103 99 94
27 12 1 6 33 25 14 6 3 353 359 3 357 358 348 289 255 249 241 238 240 242 250 253 238 233 236 244 246 242 246 251 254 257 258 263 256 242 242 254 259 253 246 243 237 234 237 243 254 270 263 236 212 201 197 198 200 199 197 193 189 186 185 184 186 187 187 186 182 178 169 157 149 141 137 136 136 133 128 121 116 111 107 102 96
357 358 352 342 329 330 333 320 314 323 335 340 332 330 332 307 267 252 248 245 241 241 247 254 245 235 237 243 247 249 250 255 260 262 263 265 265 254 245 248 259 257 245 238 234 230 228 233 245 258 261 243 216 201 195 195 199 200 200 198 194 192 190 189 190 191 191 192 189 185 178 169 161 153 148 145 145 143 139 134 126 119 112 104 92
324 328 324 314 305 301 298 292 289 299 314 321 317 314 311 292 269 258 254 251 247 243 243 247 246 236 237 243 247 252 255 260 264 267 267 264 266 260 245 243 251 254 244 235 233 232 226 227 237 244 251 244 221 204 193 193 198 200 201 201 199 197 195 194 194 195 196 196 195 191 186 180 174 167 160 154 154 153 151 147 139 129 118 102 83
296 300 301 298 295 296 295 290 285 286 294 301 300 299 295 274 255 256 251 245 247 245 241 242 241 237 239 244 247 252 257 264 269 270 268 262 263 257 242 239 246 250 242 232 231 233 229 224 230 237 240 238 224 208 197 191 194 199 201 202 201 201 200 200 199 199 200 200 200 198 195 192 187 180 171 164 162 161 161 159 154 147 132 103 73
285 288 292 292 291 292 291 290 287 286 288 292 290 289 290 271 246 250 248 239 237 237 238 238 236 235 239 244 246 250 257 265 269 270 267 260 257 253 245 241 242 247 242 232 231 233 231 225 226 232 233 229 221 209 201 195 190 195 200 202 203 203 204 205 204 204 205 206 206 206 205 201 195 190 181 173 169 169 169 169 168 167 157 123 77
287 291 293 292 289 286 284 285 286 285 285 285 284 283 285 277 256 250 249 246 241 235 234 236 237 238 240 243 246 251 258 264 267 266 264 258 252 251 250 243 238 243 244 237 234 234 232 226 223 228 230 226 218 209 203 198 193 191 195 201 203 204 205 206 208 208 208 210 210 211 211 206 200 197 192 182 176 176 178 179 181 182 185 175 112
286 291 294 292 287 281 278 282 284 281 280 280 280 280 280 279 267 252 248 250 248 241 235 236 239 240 238 239 242 249 256 262 264 262 259 257 252 248 248 245 239 239 239 234 236 236 231 225 222 224 227 226 218 209 204 201 198 194 194 198 202 205 206 207 209 211 211 212 213 213 212 208 204 201 200 194 186 183 184 187 191 193 198 197 177
284 288 290 293 293 287 284 284 284 280 276 275 275 277 277 276 267 254 249 247 245 244 240 239 240 237 235 236 238 242 250 256 259 258 258 256 255 249 247 246 240 238 234 231 239 238 227 222 221 221 224 225 220 212 205 204 202 199 198 200 202 205 208 208 209 211 213 214 215 215 214 212 208 206 205 204 198 192 191 193 196 199 202 203 204
283 285 286 293 298 296 294 291 286 281 277 274 272 272 273 271 265 256 253 249 244 246 246 245 242 236 234 237 239 241 244 248 251 255 259 258 256 251 249 247 243 240 234 233 239 236 223 218 220 222 222 222 221 216 210 208 207 205 205 205 206 206 208 212 212 212 214 216 217 218 218 216 215 213 212 210 207 202 197 196 197 200 202 206 211
285 285 285 288 292 292 293 292 289 285 282 279 276 273 271 270 266 258 255 253 251 250 248 246 243 237 235 237 238 238 238 241 244 250 257 260 254 246 245 245 245 245 239 236 236 232 223 216 217 223 221 219 220 219 216 212 211 210 211 212 213 212 210 212 215 216 215 216 219 221 223 223 223 223 221 218 214 209 203 198 197 198 201 205 210
286 285 284 282 283 286 290 291 290 289 286 284 282 279 275 271 267 261 257 256 255 253 250 245 244 242 240 237 235 233 234 236 238 244 251 254 249 241 237 237 240 244 243 238 231 230 226 216 216 222 221 219 219 219 219 216 214 213 214 217 219 219 217 214 216 219 219 219 219 222 225 228 230 230 229 226 220 213 207 201 198 197 197 202 205
285 282 281 279 280 284 287 289 289 289 288 285 282 280 278 274 270 265 259 256 255 254 251 247 245 246 246 242 235 232 233 235 235 237 239 243 245 241 236 235 237 243 244 238 231 232 230 223 222 221 217 218 218 219 222 221 218 216 214 217 221 223 222 219 217 218 221 222 221 222 225 229 231 233 233 231 225 218 211 204 199 196 196 198 200
284 282 283 282 283 284 284 284 285 286 286 285 284 282 279 277 274 271 265 260 256 254 251 248 247 247 248 246 241 235 233 235 238 237 232 234 240 241 238 236 239 248 248 241 237 234 232 230 229 223 217 218 219 220 222 224 223 220 216 215 217 220 222 221 219 218 221 223 224 224 224 228 230 232 233 232 229 223 216 208 202 198 195 194 196
287 285 285 285 284 282 281 280 282 284 286 286 286 285 283 281 277 274 270 265 260 256 251 248 247 246 247 248 246 243 238 238 242 243 236 232 236 238 239 237 237 243 242 241 241 232 229 233 232 228 220 216 219 221 221 224 227 223 220 218 217 217 216 216 217 218 220 223 226 226 226 226 227 229 231 232 231 227 222 214 206 201 197 193 193
289 287 285 284 282 280 279 279 280 283 284 285 285 285 285 285 282 277 273 269 264 259 254 250 248 246 246 247 247 247 244 240 242 246 245 240 236 235 236 237 235 234 229 230 233 228 225 228 232 230 222 216 221 223 220 224 227 225 222 220 218 217 213 211 212 215 219 222 225 227 228 228 227 227 229 230 231 229 227 221 212 206 200 196 193
293 290 287 285 283 282 282 281 282 282 282 281 280 281 281 281 281 280 277 275 271 266 260 255 251 249 247 246 246 246 246 242 239 244 248 244 239 234 230 233 236 234 228 228 227 227 228 228 231 230 222 221 225 222 220 225 228 226 225 222 218 215 212 210 211 215 219 223 225 226 228 229 229 229 229 230 230 230 230 227 220 212 206 201 196
298 295 292 289 288 286 285 285 284 283 282 281 279 278 278 278 278 278 279 279 278 275 270 264 257 253 250 247 244 244 245 244 239 240 245 243 239 234 227 226 232 232 228 228 220 221 232 232 231 227 221 225 228 222 222 226 228 228 230 228 223 217 215 215 218 222 226 229 230 229 228 228 229 230 230 230 230 230 231 230 226 220 213 207 201
303 299 296 294 292 290 288 288 287 286 284 283 282 280 278 278 277 277 278 279 280 279 276 272 266 259 254 250 247 243 243 244 241 239 242 243 239 235 231 224 224 224 222 222 217 215 223 227 226 225 223 224 225 223 224 226 227 230 233 233 230 225 222 221 224 229 233 236 236 235 234 231 230 229 230 230 230 230 231 231 229 226 221 214 207
309 304 301 298 295 293 291 289 288 287 285 282 281 280 278 277 276 275 274 274 275 276 275 273 269 265 261 257 251 245 241 241 241 239 240 243 241 236 234 227 221 221 219 217 217 214 215 219 222 224 223 223 223 224 226 227 229 232 233 234 235 233 231 228 229 233 238 241 241 240 239 237 235 233 230 230 230 230 231 231 230 228 226 221 214
312 309 305 302 298 295 293 291 288 286 284 282 279 278 277 276 274 273 271 270 271 272 272 271 269 270 268 263 256 249 243 239 239 238 238 240 241 237 233 228 223 223 221 216 215 213 212 217 221 223 222 222 224 227 229 231 233 234 233 234 235 236 236 233 232 234 237 241 243 243 242 241 240 238 235 232 231 230 231 231 231 230 228 225 220
315 311 308 305 301 297 294 292 290 289 287 284 281 278 276 275 274 273 271 271 271 270 272 274 273 274 273 266 259 253 247 241 238 237 236 237 240 239 233 228 226 225 223 220 217 215 215 217 220 223 223 222 224 228 230 232 234 235 235 234 234 235 236 235 234 234 236 239 241 243 244 244 243 241 239 237 234 232 231 231 232 231 229 228 225
318 314 311 307 304 301 298 296 293 291 289 287 285 281 278 276 275 274 274 274 274 274 276 279 279 278 276 271 264 257 252 246 240 236 235 235 237 239 237 231 229 228 227 224 221 219 218 218 220 224 226 225 226 228 229 231 232 232 235 235 234 234 234 234 233 233 235 237 238 240 242 244 245 244 243 241 238 235 233 232 232 232 231 229 228
320 316 313 309 307 304 301 298 294 291 289 287 285 283 281 279 278 277 278 278 280 281 281 283 282 281 279 275 269 262 256 250 245 239 236 234 233 236 238 235 232 232 231 228 224 222 220 219 221 224 226 227 228 228 229 230 229 229 231 234 234 233 233 233 232 233 234 235 236 238 240 243 245 245 245 243 241 238 236 234 233 232 231 230 229
322 318 314 310 307 304 301 298 295 291 289 286 284 281 280 279 279 279 280 282 283 284 285 284 283 281 279 276 272 267 260 254 250 245 240 236 233 233 236 236 233 232 233 230 226 223 222 221 222 224 226 226 227 228 228 228 228 227 228 230 232 234 235 233 232 232 233 234 235 236 238 241 243 244 245 245 243 241 238 236 235 233 232 232 231
323 318 314 310 306 304 301 298 294 291 288 286 283 280 278 277 276 277 278 280 282 283 284 284 284 283 280 278 274 269 264 258 252 249 245 241 237 233 232 234 233 232 232 232 229 225 224 224 223 224 225 227 227 227 226 225 226 226 226 227 228 232 237 236 233 232 232 233 235 237 239 240 241 242 244 245 245 243 241 239 237 235 234 233 232
323 319 314 310 307 304 301 297 293 291 288 285 283 280 277 275 273 274 275 277 279 281 284 285 286 286 284 280 276 271 266 261 255 250 247 244 241 236 232 232 232 231 231 232 232 229 226 225 225 225 227 227 227 227 226 226 227 225 223 225 224 225 232 236 232 231 234 235 235 237 239 240 241 241 244 246 247 246 243 241 239 238 236 235 234
323 320 316 312 308 304 300 296 293 291 288 286 283 281 278 275 273 273 274 276 278 280 284 287 287 287 285 281 277 273 269 264 259 253 249 246 244 241 236 233 232 230 229 230 232 232 229 227 226 226 227 227 226 226 225 226 228 226 224 226 225 223 228 233 230 226 231 237 238 238 240 242 242 243 245 247 248 248 245 242 240 239 238 237 236
323 320 317 313 309 305 301 297 295 292 290 287 284 281 278 277 275 275 275 276 278 280 284 288 288 286 284 282 279 275 272 268 264 258 252 247 245 243 240 236 233 230 228 227 229 231 232 230 228 227 226 225 224 224 222 222 225 224 224 227 227 225 228 233 231 223 224 233 238 240 241 243 245 245 246 248 250 250 248 245 242 240 240 239 238
323 321 318 314 310 305 301 298 296 294 291 289 285 282 279 278 277 278 278 278 279 281 285 288 288 288 286 283 280 277 273 269 266 261 256 251 246 244 242 239 235 232 229 227 226 229 231 231 230 228 226 224 223 222 220 219 221 222 224 227 229 229 231 235 235 228 225 232 238 240 242 245 246 248 248 249 251 251 250 248 244 241 240 240 240
323 321 318 314 309 305 301 298 296 294 292 289 286 283 281 279 279 280 280 280 281 284 287 289 289 288 287 284 280 277 273 269 266 262 258 254 249 245 242 241 238 234 231 228 225 226 229 230 231 230 227 224 222 220 220 220 221 222 224 227 228 231 233 236 237 233 231 235 240 240 242 245 247 249 250 250 251 252 252 250 246 242 239 240 241
322 321 318 314 310 305 301 298 295 293 291 289 286 284 282 281 281 282 283 283 284 285 287 289 289 288 288 285 281 277 273 269 266 262 259 255 252 248 244 241 239 236 232 228 225 224 227 229 230 231 228 225 222 220 221 221 221 222 223 225 228 230 233 235 236 234 233 235 239 240 242 244 246 248 251 252 252 253 253 252 248 243 239 238 240
322 321 318 315 311 307 303 300 296 294 291 289 287 286 285 284 284 285 286 286 287 288 289 291 291 290 289 287 282 277 273 269 266 262 259 255 252 249 246 241 238 237 234 229 224 223 226 228 228 229 228 225 222 221 222 223 222 221 223 226 229 230 232 233 234 235 234 235 238 241 241 242 245 248 251 253 254 253 253 252 250 245 240 237 238
322 321 319 316 313 309 305 301 298 296 294 291 289 289 289 289 288 288 289 289 289 291 293 294 294 294 292 289 284 279 274 270 266 263 259 256 251 248 246 243 238 235 234 230 225 223 225 226 226 227 228 225 223 222 223 224 222 222 223 226 228 230 232 233 234 235 234 235 239 241 240 241 244 247 250 252 253 253 252 252 250 246 240 236 236
323 321 319 317 314 311 308 304 301 299 296 294 293 292 292 292 291 291 291 291 290 291 294 295 295 296 296 292 288 282 277 272 267 263 260 257 253 248 246 243 239 235 232 231 227 223 224 225 225 225 226 225 224 223 224 225 225 224 224 225 227 230 232 234 234 234 233 236 240 241 240 242 244 246 248 251 252 252 251 251 250 246 240 236 236
324 321 319 318 315 312 309 306 303 300 298 297 297 296 294 293 292 292 292 292 292 294 297 297 296 298 299 296 291 286 280 275 269 264 259 256 253 249 245 243 240 236 231 230 228 224 223 224 224 224 224 223 223 224 224 225 226 225 222 222 226 228 229 231 232 233 235 238 241 241 240 241 243 245 248 251 252 252 251 251 250 246 240 236 235
324 322 320 318 315 312 309 306 304 301 300 300 300 300 298 296 295 294 294 295 296 298 300 300 300 301 301 297 293 288 282 275 270 265 260 255 251 248 245 242 239 236 231 229 228 224 222 223 223 222 222 222 223 223 224 225 226 224 220 219 222 225 226 227 227 229 235 239 241 241 240 241 242 243 246 250 251 251 251 251 250 246 241 237 235
324 322 320 318 315 312 310 308 305 303 302 302 302 302 302 301 301 299 298 299 300 301 301 303 304 304 301 297 293 288 282 276 271 265 260 254 250 247 244 241 238 236 231 228 227 225 222 221 222 221 220 220 221 222 223 224 225 223 218 216 218 221 221 222 222 224 231 236 238 239 240 241 241 241 243 246 248 249 250 250 250 247 242 238 236
324 322 320 317 314 312 310 308 306 304 304 304 304 304 303 304 303 301 301 301 302 303 305 305 306 304 300 297 293 288 282 277 272 266 261 255 250 246 243 239 236 235 231 228 226 224 221 220 220 220 219 218 219 220 221 223 223 220 216 214 216 217 217 217 217 220 227 233 234 234 236 239 240 239 239 242 244 246 248 249 249 247 243 240 238
324 322 320 317 314 312 309 308 306 305 305 305 305 305 304 304 303 302 302 302 303 305 305 306 305 303 301 297 293 288 283 278 273 266 261 256 250 245 242 237 234 233 231 228 225 223 221 219 218 218 218 217 218 219 220 221 221 218 215 213 213 214 215 214 213 218 226 230 231 231 233 237 240 238 237 239 243 247 250 249 248 247 245 242 240
324 322 320 317 313 311 309 308 305 305 306 305 305 305 304 304 304 305 305 305 305 306 306 306 306 304 301 297 292 287 282 278 273 266 260 256 250 245 241 236 233 231 230 227 224 222 220 218 217 217 216 216 216 218 220 219 218 215 213 212 210 211 213 212 211 216 224 229 231 232 234 238 241 240 237 239 244 249 253 250 247 245 244 242 242
323 322 320 317 313 310 309 309 306 306 306 305 305 306 305 305 306 307 307 307 308 309 310 310 309 306 303 299 293 288 283 278 273 266 259 253 248 243 239 236 232 231 230 227 224 222 219 217 216 215 215 215 215 217 219 218 217 214 211 211 210 209 212 213 212 215 222 227 231 233 236 240 242 241 240 241 243 248 252 251 247 244 243 242 243
322 321 319 316 313 310 309 310 307 306 306 305 306 307 307 308 309 309 309 309 310 311 312 312 311 309 306 302 296 290 285 280 272 265 258 251 245 241 238 235 232 230 230 227 223 221 219 216 215 214 214 214 214 216 218 218 216 214 211 211 212 210 211 214 215 216 220 225 228 233 237 241 242 241 242 243 244 245 248 248 246 243 242 244 245
322 321 319 316 313 309 310 311 308 306 307 307 308 310 310 310 311 310 310 311 310 311 312 312 311 309 308 304 297 292 289 282 273 264 257 249 243 240 237 234 231 229 230 227 222 220 218 216 214 213 213 214 214 215 217 217 216 214 212 211 212 211 211 214 216 219 222 225 228 233 238 240 241 240 240 243 244 244 244 245 243 241 242 245 248
322 321 318 315 313 310 310 311 309 307 309 310 311 312 312 311 311 311 312 311 311 311 311 311 310 308 307 302 296 293 290 283 273 264 256 248 242 239 236 233 231 229 229 227 222 218 216 215 213 212 212 213 214 214 215 216 216 214 213 212 211 212 213 215 218 222 225 227 229 233 236 239 241 240 238 240 242 243 243 243 242 241 241 245 250
321 320 317 313 311 310 308 309 308 308 309 311 311 313 313 312 312 313 313 312 311 310 310 310 308 306 303 298 294 293 289 280 271 262 254 246 240 238 235 232 230 228 227 225 221 217 214 213 212 211 211 212 213 214 215 215 215 214 213 212 212 213 216 217 219 223 227 229 231 234 235 238 240 239 236 236 239 242 244 243 241 242 242 243 246
319 318 316 312 311 310 309 309 309 309 310 311 312 313 313 313 314 314 313 311 311 310 309 308 306 303 299 294 291 289 284 276 268 260 252 245 240 238 236 232 229 226 225 223 219 215 213 211 210 210 210 211 213 214 213 214 214 214 213 213 212 214 217 219 222 225 229 231 234 236 236 237 238 238 235 233 237 243 245 243 242 243 243 243 244
317 317 316 314 313 312 312 311 310 310 311 311 313 314 315 314 314 313 311 311 313 311 308 307 305 300 295 292 287 281 275 269 263 256 250 243 238 237 236 232 228 224 222 220 217 214 212 210 209 209 209 210 212 213 212 211 213 214 213 213 214 216 218 221 224 227 229 231 233 235 235 235 236 236 235 235 238 244 246 245 244 245 245 246 247
317 316 315 315 315 314 313 312 311 310 310 311 313 315 314 313 313 313 312 313 315 312 308 306 303 297 293 289 284 278 271 264 258 253 246 238 235 235 235 232 227 222 220 217 215 213 211 209 208 208 208 209 211 212 211 210 212 214 213 213 215 217 218 220 223 226 228 229 231 232 233 234 236 237 236 236 238 241 244 245 246 246 247 248 248
316 315 314 315 316 315 313 312 312 311 311 313 314 314 312 312 313 315 316 317 318 314 309 306 302 296 291 288 283 277 270 261 255 250 243 234 232 234 234 231 226 221 218 215 213 211 211 209 207 207 208 208 209 211 210 210 211 213 213 213 216 217 218 220 223 226 227 229 230 231 231 233 235 237 237 237 237 238 241 244 246 247 246 246 246
315 314 315 315 315 314 313 313 313 313 313 313 314 313 312 314 317 319 319 319 319 317 312 307 300 294 291 286 281 276 266 256 250 245 239 231 231 233 234 232 227 221 216 214 212 210 209 209 208 207 208 208 208 209 210 210 211 213 213 213 215 217 217 219 221 224 226 227 228 228 229 231 235 236 237 237 237 238 241 244 246 246 245 247 249
Height
10959 10958 10956 10954 10952 10950 10950 10950 10949 10949 10948 10948 10947 10946 10944 10944 10943 10943 10942 10941 10941 10941 10940 10939 10938 10939 10939 10939 10939 10940 10941 10943 10944 10946 10946 10946 10947 10948 10950 10950 10951 10952 10953 10953 10953 10953 10954 10954 10953 10953 10952 10952 10953 10954 10956 10958 10959 10960 10960 10960 10961 10962 10962 10963 10963 10963 10963 10964 10964 10964 10965 10965 10966 10966 10966 10966 10966 10967 10967 10966 10966 10966 10966 10966 10966
10957 10956 10956 10955 10953 10952 10952 10951 10950 10949 10949 10948 10948 10946 10945 10944 10943 10942 10941 10940 10939 10938 10938 10938 10938 10938 10938 10938 10937 10938 10939 10939 10941 10943 10944 10944 10944 10947 10948 10949 10949 10950 10951 10952 10952 10952 10952 10953 10953 10953 10953 10952 10952 10953 10955 10956 10958 10959 10960 10960 10961 10962 10962 10963 10963 10964 10964 10964 10964 10965 10965 10966 10966 10966 10966 10967 10967 10967 10967 10967 10967 10967 10967 10967 10967
10955 10954 10954 10954 10953 10952 10951 10950 10949 10948 10947 10947 10947 10946 10945 10944 10943 10941 10939 10938 10937 10936 10936 10936 10937 10937 10936 10936 10935 10936 10937 10937 10937 10939 10941 10941 10941 10943 10945 10947 10947 10948 10949 10950 10951 10951 10951 10952 10952 10952 10952 10952 10952 10953 10954 10955 10957 10958 10959 10960 10961 10962 10963 10963 10964 10964 10964 10965 10965 10965 10966 10966 10967 10967 10967 10967 10967 10967 10968 10968 10968 10968 10968 10968 10968
10955 10953 10952 10952 10951 10951 10950 10948 10947 10945 10945 10945 10945 10945 10944 10943 10942 10940 10938 10937 10935 10935 10935 10935 10935 10935 10935 10935 10935 10935 10935 10935 10935 10936 10938 10939 10938 10939 10941 10944 10945 10946 10947 10949 10950 10951 10951 10951 10951 10951 10952 10952 10953 10953 10953 10954 10956 10957 10958 10960 10961 10962 10963 10963 10964 10965 10965 10965 10966 10966 10966 10966 10967 10967 10967 10968 10968 10968 10968 10969 10969 10969 10969 10968 10968
10955 10953 10952 10950 10949 10948 10947 10946 10944 10943 10942 10942 10942 10943 10943 10943 10941 10940 10938 10936 10935 10934 10934 10934 10934 10934 10935 10934 10934 10934 10934 10933 10934 10934 10935 10935 10935 10936 10938 10941 10943 10944 10945 10947 10948 10950 10950 10950 10950 10951 10951 10951 10952 10953 10953 10954 10955 10956 10957 10959 10960 10962 10963 10964 10964 10965 10965 10966 10966 10966 10967 10967 10967 10967 10968 10968 10968 10969 10969 10969 10969 10970 10970 10969 10969
10954 10952 10951 10949 10948 10946 10944 10943 10941 10940 10939 10938 10938 10939 10941 10941 10940 10939 10937 10935 10934 10933 10933 10933 10933 10934 10934 10933 10933 10933 10932 10932 10931 10932 10932 10933 10932 10932 10934 10937 10940 10942 10943 10945 10947 10948 10949 10949 10950 10950 10950 10950 10951 10952 10953 10953 10954 10955 10956 10957 10959 10960 10962 10963 10964 10965 10966 10966 10966 10967 10967 10967 10967 10967 10968 10968 10968 10969 10969 10970 10970 10970 10970 10970 10970
10952 10950 10949 10948 10947 10945 10942 10940 10938 10936 10935 10934 10934 10934 10936 10938 10938 10937 10936 10934 10933 10932 10932 10932 10932 10932 10933 10932 10932 10931 10930 10930 10929 10929 10929 10930 10930 10930 10930 10932 10936 10939 10941 10942 10945 10946 10947 10948 10948 10949 10949 10950 10950 10951 10952 10953 10953 10954 10955 10956 10957 10958 10960 10962 10963 10965 10966 10966 10966 10967 10967 10967 10968 10968 10968 10968 10968 10969 10969 10970 10970 10970 10970 10971 10971
10949 10947 10947 10946 10944 10941 10940 10937 10934 10933 10931 10930 10930 10930 10931 10933 10934 10933 10933 10933 10932 10931 10931 10930 10930 10930 10930 10930 10930 10929 10928 10927 10927 10926 10926 10926 10928 10928 10928 10930 10933 10935 10938 10940 10942 10943 10945 10946 10946 10947 10948 10949 10950 10950 10951 10952 10952 10953 10954 10954 10955 10956 10958 10960 10962 10964 10965 10966 10966 10966 10967 10967 10968 10968 10968 10968 10968 10969 10969 10970 10970 10970 10971 10971 10971
10947 10945 10944 10942 10940 10937 10935 10933 10930 10928 10927 10926 10926 10926 10926 10927 10928 10929 10929 10930 10930 10929 10929 10928 10928 10928 10928 10928 10927 10927 10926 10925 10924 10923 10923 10923 10925 10926 10927 10928 10930 10932 10934 10936 10938 10940 10942 10943 10944 10945 10946 10948 10949 10949 10950 10951 10952 10952 10952 10953 10954 10954 10956 10957 10959 10962 10964 10965 10966 10966 10966 10967 10967 10967 10968 10968 10968 10968 10969 10969 10970 10970 10971 10971 10971
10944 10942 10940 10938 10936 10934 10931 10928 10926 10924 10922 10922 10921 10921 10921 10922 10923 10924 10925 10926 10926 10926 10926 10926 10926 10925 10925 10926 10925 10925 10923 10922 10921 10921 10921 10921 10922 10923 10924 10925 10927 10928 10930 10932 10934 10937 10940 10941 10942 10942 10943 10945 10947 10948 10949 10950 10951 10951 10952 10952 10952 10953 10954 10955 10957 10959 10961 10964 10965 10966 10966 10966 10967 10967 10967 10968 10968 10968 10968 10969 10969 10970 10971 10971 10971
10940 10939 10937 10935 10933 10930 10928 10925 10923 10921 10919 10919 10918 10918 10917 10917 10918 10919 10920 10922 10923 10923 10923 10923 10923 10923 10923 10923 10923 10922 10920 10919 10919 10919 10919 10919 10919 10920 10921 10922 10923 10925 10926 10929 10931 10934 10937 10938 10939 10940 10940 10942 10944 10946 10947 10948 10949 10950 10951 10951 10951 10951 10952 10953 10955 10957 10959 10961 10963 10965 10966 10966 10967 10967 10967 10967 10967 10968 10968 10968 10969 10969 10970 10971 10971
10936 10935 10934 10932 10929 10927 10925 10923 10921 10918 10917 10916 10915 10914 10913 10913 10914 10915 10916 10917 10918 10919 10920 10920 10920 10920 10921 10920 10920 10918 10917 10916 10916 10916 10916 10916 10916 10916 10917 10918 10919 10921 10923 10926 10929 10931 10932 10934 10935 10936 10937 10939 10940 10942 10944 10946 10948 10949 10950 10950 10950 10950 10951 10951 10953 10954 10956 10959 10961 10963 10964 10965 10966 10966 10967 10967 10967 10967 10968 10968 10968 10969 10969 10970 10971
10932 10931 10929 10927 10924 10922 10921 10920 10918 10916 10914 10913 10912 10911 10910 10909 10909 10910 10912 10912 10913 10914 10916 10916 10916 10917 10917 10917 10917 10915 10914 10913 10913 10913 10913 10913 10912 10912 10913 10914 10916 10919 10921 10924 10927 10928 10929 10929 10930 10932 10933 10935 10937 10939 10941 10944 10945 10947 10948 10948 10949 10949 10949 10950 10951 10952 10954 10956 10958 10960 10962 10963 10965 10965 10966 10966 10967 10967 10967 10967 10968 10968 10969 10969 10970
10927 10925 10923 10920 10918 10917 10916 10916 10915 10913 10911 10909 10908 10906 10906 10905 10905 10906 10907 10907 10908 10910 10911 10911 10912 10912 10913 10913 10912 10911 10911 10910 10910 10911 10911 10911 10910 10909 10910 10911 10913 10916 10919 10922 10924 10925 10926 10925 10926 10928 10931 10932 10934 10936 10938 10941 10943 10944 10946 10946 10947 10947 10948 10948 10949 10950 10952 10953 10955 10957 10959 10961 10962 10964 10965 10965 10966 10966 10967 10967 10967 10968 10969 10969 10970
10923 10920 10918 10916 10914 10913 10912 10912 10911 10909 10907 10905 10903 10902 10902 10902 10902 10902 10902 10902 10903 10904 10905 10906 10906 10907 10907 10907 10906 10907 10907 10907 10908 10909 10909 10909 10908 10907 10907 10908 10909 10911 10915 10917 10920 10922 10922 10923 10924 10926 10929 10931 10933 10934 10936 10938 10940 10942 10943 10944 10944 10945 10945 10946 10947 10948 10949 10951 10953 10955 10956 10958 10960 10961 10963 10964 10964 10965 10966 10966 10967 10967 10968 10969 10969
10920 10917 10915 10913 10911 10910 10909 10908 10907 10904 10902 10900 10899 10898 10898 10897 10897 10897 10897 10896 10897 10898 10899 10899 10900 10900 10900 10900 10900 10901 10902 10904 10905 10905 10907 10908 10906 10905 10905 10906 10906 10908 10909 10911 10915 10918 10919 10920 10921 10923 10926 10929 10930 10931 10933 10934 10936 10938 10940 10941 10942 10942 10943 10944 10944 10945 10947 10949 10950 10952 10954 10956 10957 10959 10960 10961 10962 10963 10964 10965 10966 10967 10967 10968 10969
10914 10913 10911 10909 10907 10905 10903 10903 10902 10900 10897 10895 10894 10894 10894 10893 10892 10892 10892 10890 10890 10891 10892 10893 10894 10894 10894 10894 10894 10895 10896 10899 10901 10901 10903 10905 10904 10902 10902 10903 10904 10905 10905 10906 10909 10913 10915 10917 10918 10920 10924 10926 10927 10928 10929 10930 10933 10935 10937 10938 10939 10939 10940 10941 10942 10943 10944 10946 10948 10949 10951 10953 10955 10956 10958 10959 10960 10961 10962 10963 10964 10965 10966 10967 10968
10907 10906 10904 10903 10901 10900 10898 10897 10896 10895 10892 10891 10890 10889 10889 10888 10888 10887 10887 10885 10884 10884 10885 10887 10887 10887 10887 10887 10887 10888 10889 10892 10895 10897 10898 10899 10900 10899 10899 10900 10902 10902 10902 10903 10904 10907 10910 10913 10914 10917 10921 10922 10923 10925 10926 10928 10930 10932 10933 10934 10935 10936 10937 10938 10939 10940 10942 10943 10945 10946 10948 10950 10952 10954 10955 10956 10958 10959 10960 10961 10962 10963 10964 10966 10967
10900 10899 10897 10896 10894 10894 10892 10891 10890 10889 10887 10886 10885 10884 10884 10883 10883 10882 10882 10880 10880 10880 10880 10881 10880 10879 10880 10880 10881 10882 10883 10885 10888 10891 10892 10893 10894 10895 10896 10897 10898 10898 10898 10899 10900 10902 10905 10907 10909 10913 10916 10918 10919 10921 10923 10926 10928 10928 10929 10930 10932 10933 10933 10935 10936 10937 10939 10940 10942 10944 10945 10947 10949 10950 10952 10954 10955 10956 10957 10958 10960 10961 10962 10963 10965
10893 10892 10890 10889 10888 10887 10886 10885 10884 10883 10882 10881 10880 10879 10878 10878 10877 10877 10877 10876 10876 10876 10875 10875 10874 10873 10873 10873 10874 10875 10875 10876 10879 10882 10885 10887 10889 10890 10891 10893 10893 10893 10894 10895 10895 10897 10899 10902 10904 10907 10910 10912 10914 10917 10920 10922 10924 10925 10926 10927 10928 10929 10930 10931 10933 10934 10936 10938 10939 10941 10943 10944 10946 10948 10949 10951 10952 10953 10954 10956 10957 10958 10960 10961 10962
10888 10886 10884 10883 10882 10881 10880 10879 10878 10878 10877 10876 10875 10874 10873 10873 10872 10872 10871 10871 10871 10870 10870 10870 10869 10867 10867 10866 10866 10866 10866 10868 10870 10873 10878 10880 10881 10884 10885 10887 10888 10889 10890 10891 10891 10893 10895 10897 10899 10900 10903 10906 10908 10912 10916 10919 10920 10921 10922 10923 10924 10926 10927 10928 10929 10931 10933 10935 10936 10938 10939 10941 10943 10945 10946 10948 10949 10950 10951 10953 10954 10955 10957 10958 10960
10884 10881 10879 10877 10876 10875 10874 10873 10872 10871 10870 10870 10869 10868 10867 10867 10866 10866 10866 10865 10865 10865 10864 10864 10862 10861 10860 10859 10859 10858 10859 10861 10863 10866 10870 10873 10874 10876 10879 10881 10881 10883 10884 10886 10887 10888 10891 10893 10894 10895 10897 10900 10903 10907 10911 10914 10916 10918 10918 10919 10920 10922 10923 10924 10925 10927 10929 10931 10933 10934 10936 10938 10939 10941 10943 10945 10946 10948 10949 10950 10951 10952 10954 10955 10957
10879 10877 10874 10872 10870 10868 10867 10867 10866 10864 10863 10862 10861 10861 10861 10860 10860 10860 10859 10859 10858 10858 10857 10856 10854 10853 10853 10852 10852 10852 10852 10853 10855 10859 10863 10866 10867 10869 10872 10875 10876 10876 10877 10880 10882 10883 10885 10888 10890 10891 10893 10895 10899 10902 10904 10907 10911 10914 10915 10915 10916 10918 10919 10920 10922 10923 10925 10927 10929 10931 10932 10934 10936 10938 10939 10941 10943 10945 10946 10947 10948 10949 10951 10952 10954
10873 10871 10868 10866 10864 10862 10861 10860 10859 10858 10857 10855 10854 10853 10852 10852 10852 10852 10852 10851 10850 10849 10848 10847 10846 10845 10845 10845 10846 10846 10845 10846 10847 10850 10853 10856 10859 10862 10864 10868 10871 10870 10870 10874 10877 10878 10879 10882 10884 10886 10888 10891 10894 10897 10898 10901 10905 10909 10911 10912 10913 10914 10915 10917 10918 10919 10921 10923 10925 10927 10928 10930 10932 10934 10936 10937 10939 10941 10943 10944 10945 10946 10947 10949 10950
10868 10865 10863 10860 10858 10856 10855 10853 10852 10851 10850 10848 10847 10846 10845 10845 10844 10844 10844 10843 10842 10841 10839 10839 10838 10839 10838 10838 10839 10838 10838 10838 10839 10841 10843 10846 10850 10853 10854 10859 10863 10863 10864 10868 10870 10871 10873 10875 10876 10879 10882 10885 10889 10891 10893 10895 10899 10903 10906 10907 10908 10911 10912 10913 10915 10916 10917 10919 10921 10922 10924 10926 10928 10930 10932 10933 10935 10937 10939 10940 10942 10943 10944 10946 10947
10863 10860 10857 10855 10852 10850 10849 10847 10846 10844 10843 10842 10841 10840 10839 10838 10838 10837 10837 10836 10835 10834 10832 10831 10831 10831 10832 10832 10831 10830 10829 10830 10831 10832 10834 10836 10839 10843 10844 10848 10852 10854 10856 10860 10862 10864 10865 10866 10869 10873 10876 10879 10882 10885 10887 10890 10893 10896 10899 10902 10904 10907 10908 10909 10911 10912 10913 10914 10916 10918 10920 10922 10924 10926 10928 10929 10931 10933 10935 10937 10938 10940 10941 10942 10944
10858 10855 10852 10850 10847 10845 10843 10841 10839 10838 10837 10835 10834 10833 10833 10832 10832 10831 10830 10829 10827 10827 10825 10824 10824 10823 10824 10824 10822 10820 10819 10820 10821 10822 10823 10825 10828 10831 10834 10837 10841 10845 10848 10852 10855 10857 10857 10858 10862 10867 10870 10873 10876 10879 10882 10885 10887 10890 10893 10895 10896 10899 10903 10904 10905 10907 10908 10910 10911 10914 10916 10917 10920 10921 10923 10925 10927 10929 10931 10932 10934 10936 10938 10939 10941
10853 10850 10847 10844 10841 10839 10837 10835 10833 10831 10830 10829 10828 10826 10825 10825 10825 10824 10823 10822 10820 10820 10820 10818 10817 10816 10815 10814 10812 10810 10809 10809 10810 10811 10813 10815 10817 10820 10824 10827 10831 10835 10839 10844 10848 10848 10848 10850 10855 10859 10862 10865 10869 10872 10876 10879 10881 10884 10888 10889 10889 10892 10895 10897 10898 10899 10901 10904 10906 10908 10911 10913 10915 10917 10919 10921 10923 10924 10926 10928 10930 10932 10934 10936 10937
10847 10844 10841 10837 10834 10832 10829 10827 10826 10824 10823 10822 10821 10819 10818 10817 10817 10816 10815 10814 10813 10814 10814 10812 10810 10809 10808 10805 10803 10802 10800 10799 10799 10800 10802 10804 10806 10808 10812 10816 10820 10825 10829 10835 10838 10838 10840 10844 10848 10851 10854 10857 10861 10865 10870 10873 10876 10879 10882 10882 10884 10887 10889 10890 10892 10893 10894 10897 10900 10903 10906 10909 10911 10913 10915 10916 10918 10920 10921 10924 10926 10928 10930 10932 10934
10842 10838 10835 10831 10828 10825 10822 10820 10818 10817 10816 10815 10813 10811 10811 10810 10808 10807 10807 10806 10806 10806 10806 10805 10803 10802 10800 10798 10795 10793 10791 10790 10788 10788 10789 10792 10794 10796 10800 10804 10809 10814 10819 10824 10828 10828 10830 10837 10841 10844 10847 10850 10855 10859 10864 10867 10870 10873 10875 10877 10880 10883 10884 10886 10888 10890 10890 10891 10894 10898 10901 10904 10906 10908 10910 10911 10913 10915 10917 10919 10921 10923 10926 10928 10930
10837 10833 10830 10826 10822 10819 10816 10813 10811 10810 10808 10807 10805 10803 10803 10801 10800 10800 10798 10797 10798 10798 10798 10797 10795 10793 10791 10789 10786 10784 10782 10780 10778 10776 10777 10779 10782 10784 10788 10792 10797 10803 10808 10814 10819 10819 10821 10828 10833 10837 10842 10845 10849 10853 10858 10861 10864 10866 10869 10872 10875 10877 10880 10882 10884 10886 10887 10888 10891 10894 10896 10899 10901 10902 10905 10906 10908 10910 10911 10913 10916 10918 10921 10923 10925
10832 10828 10824 10821 10817 10813 10810 10807 10805 10803 10802 10800 10797 10795 10795 10793 10792 10792 10789 10788 10788 10789 10789 10788 10785 10783 10781 10778 10776 10773 10771 10768 10767 10766 10765 10767 10770 10772 10776 10780 10785 10791 10796 10803 10809 10809 10810 10818 10825 10831 10837 10841 10844 10848 10851 10854 10858 10861 10864 10866 10869 10872 10875 10876 10878 10880 10882 10884 10887 10889 10892 10894 10895 10897 10899 10901 10903 10904 10906 10908 10910 10913 10916 10919 10921
10825 10822 10818 10814 10810 10807 10803 10800 10797 10795 10794 10792 10790 10788 10787 10786 10784 10783 10780 10778 10777 10778 10778 10776 10774 10772 10769 10767 10765 10762 10759 10756 10755 10755 10755 10755 10758 10760 10763 10768 10773 10778 10784 10791 10797 10798 10799 10807 10816 10822 10829 10835 10840 10843 10844 10848 10852 10856 10858 10861 10864 10867 10869 10870 10873 10875 10878 10880 10882 10884 10886 10888 10890 10892 10894 10896 10897 10899 10901 10902 10904 10907 10910 10913 10916
10818 10815 10812 10807 10803 10799 10795 10792 10789 10787 10785 10784 10782 10780 10779 10777 10775 10773 10771 10768 10766 10766 10766 10763 10760 10758 10757 10755 10752 10749 10746 10744 10742 10743 10744 10744 10746 10748 10751 10756 10761 10765 10771 10778 10785 10787 10789 10796 10805 10812 10820 10829 10834 10836 10838 10841 10845 10849 10853 10856 10859 10861 10863 10865 10867 10870 10872 10875 10876 10878 10880 10882 10884 10887 10888 10890 10892 10894 10895 10897 10898 10901 10904 10907 10911
10811 10806 10802 10799 10795 10791 10787 10783 10780 10778 10776 10775 10774 10773 10771 10769 10766 10764 10763 10760 10758 10757 10756 10752 10748 10745 10743 10741 10738 10735 10732 10730 10730 10731 10732 10733 10735 10737 10740 10744 10748 10753 10758 10764 10772 10777 10779 10786 10796 10804 10811 10820 10826 10829 10832 10835 10839 10844 10849 10851 10853 10855 10857 10860 10862 10864 10867 10870 10872 10873 10875 10877 10879 10882 10884 10885 10887 10889 10890 10891 10893 10895 10897 10901 10905
10805 10800 10795 10790 10786 10782 10779 10775 10772 10770 10768 10765 10765 10764 10763 10761 10758 10757 10755 10751 10748 10747 10745 10741 10737 10734 10731 10727 10724 10721 10718 10717 10717 10718 10720 10721 10723 10726 10728 10732 10737 10741 10746 10752 10759 10767 10771 10778 10787 10794 10802 10810 10817 10821 10825 10829 10834 10839 10843 10845 10847 10849 10852 10854 10857 10860 10862 10865 10867 10869 10870 10872 10875 10877 10879 10881 10883 10884 10885 10886 10888 10889 10892 10895 10899
10798 10793 10788 10783 10778 10774 10770 10768 10764 10762 10760 10758 10755 10754 10752 10750 10749 10747 10744 10740 10735 10734 10732 10729 10725 10722 10719 10714 10711 10709 10707 10704 10704 10705 10707 10708 10711 10714 10717 10721 10725 10729 10734 10739 10747 10755 10761 10768 10776 10784 10792 10800 10807 10813 10817 10822 10827 10831 10835 10838 10841 10843 10846 10849 10853 10856 10858 10860 10862 10864 10866 10868 10870 10873 10875 10877 10879 10881 10882 10882 10883 10885 10887 10890 10894
10790 10785 10781 10776 10771 10766 10762 10758 10755 10752 10752 10751 10748 10744 10742 10739 10736 10733 10731 10728 10724 10721 10719 10716 10713 10711 10707 10703 10699 10698 10696 10694 10694 10694 10694 10695 10698 10701 10705 10708 10712 10717 10722 10727 10734 10742 10749 10756 10764 10773 10782 10790 10798 10804 10808 10813 10819 10823 10827 10831 10833 10836 10841 10845 10848 10850 10852 10855 10857 10860 10862 10863 10865 10868 10870 10872 10874 10876 10878 10879 10880 10881 10883 10886 10889
10784 10779 10774 10769 10764 10760 10755 10751 10747 10744 10743 10743 10741 10737 10734 10731 10726 10721 10718 10717 10714 10710 10707 10704 10702 10699 10696 10692 10688 10686 10684 10683 10683 10682 10681 10683 10686 10689 10693 10696 10700 10704 10709 10714 10721 10729 10737 10744 10753 10761 10771 10780 10788 10793 10798 10804 10811 10817 10821 10824 10826 10831 10836 10839 10842 10844 10847 10849 10852 10855 10857 10858 10860 10863 10865 10867 10869 10872 10873 10875 10876 10878 10880 10882 10885
10776 10771 10766 10761 10757 10753 10749 10744 10741 10738 10735 10734 10733 10730 10726 10722 10718 10713 10710 10708 10705 10700 10696 10693 10691 10688 10685 10681 10677 10673 10672 10671 10671 10671 10670 10672 10675 10677 10680 10684 10688 10691 10696 10702 10709 10716 10724 10733 10742 10751 10761 10771 10779 10784 10789 10796 10804 10810 10814 10816 10819 10824 10829 10832 10836 10839 10841 10843 10847 10850 10851 10853 10855 10857 10860 10862 10865 10867 10869 10871 10872 10874 10876 10879 10882
10768 10763 10758 10753 10749 10745 10742 10738 10734 10731 10727 10725 10724 10722 10717 10712 10708 10704 10700 10697 10695 10691 10686 10683 10681 10678 10674 10670 10665 10662 10660 10659 10659 10659 10659 10661 10664 10666 10668 10672 10676 10678 10683 10690 10697 10704 10713 10722 10731 10741 10751 10762 10770 10774 10779 10788 10796 10800 10803 10807 10812 10817 10822 10827 10831 10833 10835 10838 10841 10844 10846 10848 10850 10853 10856 10858 10861 10863 10866 10867 10868 10870 10872 10875 10878
10759 10755 10750 10745 10741 10737 10734 10730 10727 10723 10720 10717 10715 10713 10708 10703 10699 10694 10689 10685 10681 10677 10674 10671 10669 10666 10663 10659 10654 10651 10649 10648 10648 10648 10648 10651 10653 10655 10657 10661 10664 10667 10671 10678 10685 10693 10702 10711 10720 10731 10742 10751 10758 10763 10770 10780 10786 10791 10797 10802 10807 10811 10816 10821 10824 10826 10829 10832 10835 10838 10841 10843 10846 10849 10851 10854 10856 10860 10862 10863 10863 10865 10867 10870 10873
10750 10746 10741 10736 10732 10729 10726 10724 10720 10716 10713 10709 10707 10704 10699 10695 10690 10684 10679 10675 10669 10665 10662 10659 10656 10653 10651 10647 10643 10640 10639 10638 10638 10637 10638 10640 10642 10644 10647 10650 10654 10657 10660 10667 10675 10681 10690 10700 10710 10721 10732 10740 10747 10754 10762 10770 10777 10785 10791 10796 10799 10803 10808 10812 10815 10818 10821 10825 10828 10832 10836 10840 10842 10844 10847 10849 10852 10855 10857 10857 10858 10860 10863 10866 10869
10742 10738 10733 10728 10724 10722 10720 10717 10714 10710 10706 10702 10698 10694 10690 10686 10682 10677 10672 10667 10661 10657 10653 10650 10646 10643 10641 10637 10633 10632 10631 10630 10629 10628 10628 10630 10632 10634 10637 10641 10644 10647 10650 10656 10664 10671 10679 10690 10699 10710 10721 10729 10737 10745 10753 10761 10769 10777 10782 10786 10791 10796 10800 10804 10808 10811 10813 10818 10824 10827 10831 10835 10838 10840 10842 10844 10846 10849 10851 10852 10854 10856 10859 10862 10865
10735 10731 10726 10721 10717 10715 10713 10711 10708 10704 10700 10695 10690 10685 10680 10676 10673 10670 10665 10659 10653 10649 10646 10642 10637 10634 10633 10629 10625 10626 10626 10623 10621 10621 10620 10621 10623 10624 10628 10631 10635 10638 10641 10647 10654 10661 10670 10680 10690 10701 10711 10719 10727 10735 10742 10750 10759 10767 10773 10778 10785 10791 10794 10799 10803 10804 10807 10813 10819 10822 10825 10830 10833 10835 10838 10839 10841 10843 10845 10848 10850 10852 10855 10858 10861
10729 10725 10720 10716 10712 10709 10707 10704 10700 10698 10694 10689 10684 10679 10673 10667 10663 10660 10657 10652 10645 10640 10636 10633 10629 10626 10624 10621 10618 10618 10618 10615 10614 10613 10612 10613 10614 10616 10619 10623 10627 10630 10634 10638 10645 10652 10660 10671 10682 10693 10702 10710 10717 10725 10733 10743 10751 10759 10765 10771 10780 10785 10787 10791 10795 10798 10803 10810 10813 10816 10821 10825 10827 10830 10832 10833 10836 10839 10841 10844 10846 10848 10851 10854 10857
10720 10716 10712 10709 10706 10703 10700 10696 10692 10688 10685 10681 10676 10672 10666 10661 10656 10652 10648 10644 10638 10631 10626 10624 10621 10617 10614 10613 10612 10612 10611 10608 10606 10605 10604 10606 10608 10610 10612 10616 10619 10623 10627 10631 10637 10644 10652 10663 10674 10685 10694 10702 10709 10716 10725 10736 10745 10751 10757 10765 10773 10777 10780 10785 10792 10796 10801 10806 10807 10811 10817 10820 10822 10824 10825 10828 10833 10836 10838 10840 10843 10845 10847 10849 10852
10710 10706 10702 10700 10698 10694 10692 10689 10684 10680 10676 10672 10667 10662 10657 10653 10649 10644 10639 10635 10629 10622 10616 10614 10612 10609 10605 10604 10604 10605 10604 10601 10599 10598 10598 10600 10603 10605 10607 10609 10613 10617 10621 10625 10631 10637 10646 10656 10667 10676 10685 10694 10701 10707 10717 10728 10736 10742 10751 10760 10766 10770 10775 10783 10789 10792 10796 10800 10802 10806 10811 10816 10819 10820 10820 10824 10831 10833 10833 10836 10840 10841 10843 10845 10847
10700 10696 10692 10690 10688 10685 10682 10680 10677 10672 10668 10664 10659 10653 10648 10643 10640 10636 10629 10624 10619 10612 10607 10605 10603 10600 10598 10596 10595 10595 10595 10594 10592 10592 10593 10595 10597 10599 10600 10603 10607 10612 10615 10620 10626 10632 10640 10649 10659 10667 10676 10685 10692 10698 10708 10720 10728 10734 10744 10753 10758 10763 10771 10778 10781 10784 10788 10793 10797 10801 10807 10812 10815 10815 10816 10820 10826 10829 10829 10832 10835 10837 10840 10841 10843
10693 10688 10684 10680 10678 10675 10671 10670 10667 10663 10658 10655 10650 10644 10639 10635 10631 10626 10618 10612 10608 10603 10598 10596 10595 10592 10590 10589 10588 10586 10586 10586 10586 10587 10588 10590 10592 10593 10595 10598 10603 10607 10611 10615 10621 10626 10633 10642 10650 10658 10666 10675 10683 10691 10701 10712 10720 10727 10737 10746 10750 10756 10765 10770 10774 10778 10783 10789 10794 10798 10802 10806 10808 10810 10812 10815 10820 10825 10826 10828 10829 10832 10835 10837 10838
10686 10681 10676 10672 10669 10666 10661 10659 10657 10652 10648 10644 10640 10634 10630 10625 10620 10614 10608 10602 10598 10594 10591 10589 10587 10585 10583 10582 10581 10580 10580 10580 10581 10582 10584 10586 10587 10588 10591 10594 10598 10602 10606 10610 10615 10620 10626 10634 10642 10650 10658 10667 10676 10685 10695 10704 10712 10720 10730 10737 10742 10750 10758 10763 10766 10772 10779 10784 10787 10791 10795 10798 10802 10806 10808 10810 10816 10822 10824 10825 10825 10827 10831 10833 10834